[Iaude] MPEC A30: 2016 YB13 [a=5.46,e=0.41,i=139.7,H=15.6]

mpec at si.edu mpec at si.edu
Fri Jan 6 09:37:48 EST 2017


M.P.E.C. 2017-A30                                Issued 2017 Jan. 6, 14:30 UT
 
     The Minor Planet Electronic Circulars contain information on unusual
         minor planets and routine data on comets.  They are published
    on behalf of Division F of the International Astronomical Union by the
          Minor Planet Center, Smithsonian Astrophysical Observatory,
                          Cambridge, MA 02138, U.S.A.

             Prepared using the Tamkin Foundation Computer Network

                              MPC at CFA.HARVARD.EDU
            URL http://www.minorplanetcenter.net/    ISSN 1523-6714


                                   2016 YB13
 
Observations:
     K16Y13B  C2016 10 07.59667 05 09 14.904-19 55 08.75         21.6 wLEA030F51
     K16Y13B  C2016 10 07.61557 05 09 13.586-19 55 29.83         22.3 wLEA030F51
     K16Y13B  C2016 10 07.62503 05 09 12.932-19 55 40.30         22.9 wLEA030F51
     K16Y13B  C2016 10 14.60301 05 00 24.683-22 05 27.37         21.8 iLEA030F51
     K16Y13B  C2016 10 14.61159 05 00 23.970-22 05 37.04         21.0 iLEA030F51
     K16Y13B  C2016 10 14.61944 05 00 23.289-22 05 45.75         21.2 iLEA030F51
     K16Y13B* C2016 12 23.25058 02 34 24.572-32 56 57.58         21.6 wLEA030F51
     K16Y13B  C2016 12 23.25960 02 34 23.610-32 56 55.52         21.7 wLEA030F51
     K16Y13B  C2016 12 23.26858 02 34 22.625-32 56 53.18         21.6 wLEA030F51
     K16Y13B  C2016 12 23.27757 02 34 21.699-32 56 50.99         21.8 wLEA030F51
     K16Y13B |C2016 12 24.07192 02 32 57.76 -32 53 39.0          21.6 VuEA030807
     K16Y13B |C2016 12 24.07761 02 32 57.13 -32 53 37.4          21.5 VuEA030807
     K16Y13B |C2016 12 24.08345 02 32 56.51 -32 53 36.1          21.6 VuEA030807
     K16Y13B KC2016 12 24.20597 02 32 43.51 -32 53 08.2                oEA030291
     K16Y13B KC2016 12 24.21030 02 32 43.16 -32 53 06.8                oEA030291
     K16Y13B KC2016 12 24.21463 02 32 42.73 -32 53 04.5                oEA030291
     K16Y13B KC2016 12 24.50048 02 32 12.95 -32 51 50.9          21.5 RtEA030474
     K16Y13B KC2016 12 24.50399 02 32 12.63 -32 51 49.7          21.0 RtEA030474
     K16Y13B KC2016 12 24.50787 02 32 12.17 -32 51 48.7          21.1 RtEA030474
     K16Y13B KC2016 12 25.44254 02 30 36.12 -32 47 46.4          21.1 RtEA030474
     K16Y13B KC2016 12 25.44605 02 30 35.75 -32 47 44.5          21.6 RtEA030474
     K16Y13B KC2016 12 25.45028 02 30 35.35 -32 47 44.7          21.5 RtEA030474
     K16Y13B |C2016 12 27.11155 02 27 49.24 -32 40 01.3          21.8 VuEA030807
     K16Y13B |C2016 12 27.11740 02 27 48.66 -32 39 59.1          21.8 VuEA030807
     K16Y13B KC2016 12 27.47805 02 27 13.47 -32 38 11.9          21.2 RtEA030474
     K16Y13B KC2016 12 27.49212 02 27 12.07 -32 38 08.3          21.5 RtEA030474
     K16Y13B KC2016 12 29.45004 02 24 05.73 -32 28 04.2          21.2 RtEA030474
     K16Y13B KC2016 12 29.45708 02 24 05.00 -32 28 01.5          21.5 RtEA030474
     K16Y13B KC2016 12 29.46416 02 24 04.40 -32 27 58.4          21.5 RtEA030474
     K16Y13B KC2016 12 30.12106 02 23 03.81 -32 24 27.8          21.9 RoEA030291
     K16Y13B KC2016 12 30.12631 02 23 03.32 -32 24 25.9          22.1 RoEA030291
     K16Y13B KC2016 12 30.13155 02 23 02.86 -32 24 23.4                oEA030291
     K16Y13B KC2016 12 30.44807 02 22 33.95 -32 22 35.9          21.7 RtEA030474
     K16Y13B KC2016 12 30.45511 02 22 33.24 -32 22 33.9          21.7 RtEA030474
     K16Y13B KC2016 12 30.46214 02 22 32.64 -32 22 31.3          21.6 RtEA030474
     K16Y13B KC2017 01 01.45254 02 19 36.21 -32 11 03.6          20.9 RtEA030474
     K16Y13B KC2017 01 01.47244 02 19 34.55 -32 10 56.8          20.7 RtEA030474
     K16Y13B KC2017 01 01.48384 02 19 33.50 -32 10 51.0          21.8 RtEA030474
     K16Y13B _C2017 01 02.20299502 18 32.113-32 06 35.97         21.5 GUEA030568
     K16Y13B _C2017 01 02.20501802 18 31.943-32 06 35.22         21.7 GUEA030568
     K16Y13B _C2017 01 02.20698002 18 31.789-32 06 34.57         21.7 GUEA030568
     K16Y13B _C2017 01 02.20894202 18 31.613-32 06 33.72         21.4 GUEA030568
     K16Y13B  C2017 01 03.21892 02 17 07.046-32 00 20.96         21.8 wLEA030F51
     K16Y13B  C2017 01 03.22985 02 17 06.113-32 00 16.69         21.7 wLEA030F51
     K16Y13B  C2017 01 03.24079 02 17 05.222-32 00 12.64         21.8 wLEA030F51
     K16Y13B  C2017 01 03.25172 02 17 04.299-32 00 08.74         21.6 wLEA030F51
     K16Y13B KC2017 01 05.42554 02 14 09.95 -31 46 10.4          21.8 RtEA030474
     K16Y13B KC2017 01 05.43258 02 14 09.35 -31 46 06.7          21.7 RtEA030474
     K16Y13B KC2017 01 05.43963 02 14 08.89 -31 46 03.5          21.7 RtEA030474
 
Observer details:
291 LPL/Spacewatch II.  Observers R. A. Mastaler, A. F. Tubbiolo.  1.8-m f/2.7
    reflector + CCD.
474 Mount John Observatory, Lake Tekapo.  Observers A. C. Gilmore,
    P. M. Kilmartin.  Measurer P. M. Kilmartin.  1.0-m f/7.7 reflector + CCD.
568 Mauna Kea.  Observers R. J. Wainscoat, M. Micheli, P. Forshay.  Measurer
    M. Micheli.  3.6-m Canada-France-Hawaii Telescope + CCD.
807 Cerro Tololo.  Observers T. Linder, R. Holmes.  0.61-m f/6.5 astrograph
    + CCD.
F51 Pan-STARRS 1, Haleakala.  Observers B. Gibson, T. Goggia, S. Kahale,
    T. Lowe, A. Schultz, M. Willman.  Measurers K. Chambers, S. Chastel,
    L. Denneau, H. Flewelling, M. Huber, E. Lilly, E. Magnier, R. Wainscoat,
    C. Waters, R. Weryk.  1.8-m Ritchey-Chretien + CCD.
 
Orbital elements:
2016 YB13
Epoch 2017 Feb. 16.0 TT = JDT 2457800.5                 MPC
M 346.93763              (2000.0)            P               Q
n   0.07717878     Peri.  300.22556     +0.81184042     +0.02807687
a   5.4634979      Node   295.65459     +0.06773738     -0.99662770
e   0.4081346      Incl.  139.68546     -0.57993688     -0.07710324
P  12.77           H   15.6           G   0.15           U   4
Residuals in seconds of arc
161007 F51  0.1-  0.1+    161224 474  0.7+  0.4+    161230 474  0.2+  0.1-
161007 F51  0.2-  0.1-    161224 474  0.0   0.4+    170101 474  0.2-  0.1-
161007 F51  0.1-  0.1-    161225 474  0.1-  0.0     170101 474  0.8+  0.5-
161014 F51  0.1+  0.0     161225 474  0.2-  1.0+    170101 474  0.0   1.2+
161014 F51  0.3+  0.1-    161225 474  0.2+  0.3-    170102 568  0.0   0.0
161014 F51  0.0   0.0     161227 807  0.1+  0.1-    170102 568  0.1+  0.0
161223 F51  0.0   0.2-    161227 807  0.1+  0.4+    170102 568  0.2+  0.1-
161223 F51  0.2+  0.3-    161227 474  1.0+  0.9+    170102 568  0.2+  0.0
161223 F51  0.1-  0.0     161227 474  0.8+  0.3+    170103 F51  0.1-  0.2-
161223 F51  0.5+  0.1+    161229 474  0.7+  1.0-    170103 F51  0.3-  0.0
161224 807  0.4+  0.3-    161229 474  0.2-  0.6-    170103 F51  0.1+  0.1-
161224 807  0.1+  0.1-    161229 474  0.6+  0.2+    170103 F51  0.0   0.2-
161224 807  0.1+  0.2-    161230 291  0.5-  0.1-    170105 474  0.5+  0.8-
161224 291  2.1-  0.2-    161230 291  0.5-  0.0     170105 474  0.1-  0.1+
161224 291  0.8-  0.1+    161230 291  0.2-  0.8+    170105 474  1.1+  0.5+
161224 291  0.4-  1.3+    161230 474  0.4+  0.0
161224 474  0.1+  0.1+    161230 474  0.4-  0.4-

Ephemeris:
2016 YB13                a,e,i = 5.46, 0.41, 140                 q = 3.2337
Date    TT    R. A. (2000) Decl.     Delta      r     Elong.  Phase     V
2016 12 07    03 07 32.6 -33 16 25   2.9618  3.5395   118.5    14.2    21.5
...
2016 12 22    02 36 39.5 -33 01 33   3.1135  3.5051   105.4    15.7    21.6
...
2016 12 30    02 23 15.0 -32 25 05   3.2146  3.4875    97.8    16.2    21.7
...
2017 01 05    02 14 43.4 -31 48 58   3.2961  3.4745    92.1    16.4    21.8
2017 01 06    02 13 25.7 -31 42 23   3.3100  3.4724    91.2    16.4    21.8
2017 01 07    02 12 10.1 -31 35 40   3.3240  3.4703    90.2    16.5    21.8
...
2017 01 13    02 05 20.1 -30 53 01   3.4088  3.4577    84.6    16.4    21.8
...
2017 01 21    01 58 02.8 -29 51 50   3.5225  3.4414    77.2    16.2    21.9
...
2017 02 05    01 49 15.7 -27 53 07   3.7260  3.4121    64.1    15.1    22.0

Gareth V. Williams           (C) Copyright 2017 MPC           M.P.E.C. 2017-A30




More information about the Iaude mailing list